sat.trackr.live / text

‹ back to catalog

GAOFEN-9 04

NORAD 46025 · 2020-054A

PAYLOAD ACTIVE UNKNOWN

§ Identity

Operator
Country
PRC
Launch date
2020-08-06
Launch site
JSC
Launch vehicle
Mass (kg)
RCS (m²)

External: N2YO · Heavens-Above · Gunter

§ Orbital elements

Epoch: 2026-05-25T03:57:12.570048Z

Period
93.71 min
Inclination
97.2440°
Eccentricity
0.0011275
Mean motion
15.36680679 rev/d
Perigee alt
448.2 km
Apogee alt
463.6 km
Semi-major
6,834.1 km
B*
2.7849e-4
RAAN
214.4700°
Arg perigee
166.2637°
Mean anomaly
193.8917°
Rev number
32,282

§ Raw data

GAOFEN-9 041 46025U 20054A   26145.16472882  .00009919  00000+0  27849-3 0  99942 46025  97.2440 214.4700 0011275 166.2637 193.8917 15.36680679322826

JSON: /api/v1/satellites/46025 · /tle

For live sub-satellite position, see the globe view (requires WebGL).

§ Visibility from observer

Set your observer location to see the next 7 days of passes ≥ 10°. The values pass through the URL so the page stays shareable.

No JS? Fill the form by hand. The geolocation button needs JavaScript.